Date String (YYYY-MM-DD hh:mm:ss) UTC,Instrument flags,Ambient pressure (hPa),Sample flow (lpm),Bypass flow (lpm),Sample temperature (°C),Ambient temperature (°C),ASC tube jacket temperature (°C),LED temperature (°C),Box temperature (°C),Sample RH (%),Span deviation,Mass concentration (μg/m³),Mass concentration (μg/m³),Mass concentration (μg/m³)
DateTimeUTC,F1_M11,P_M11,Q1_M11,Q2_M11,T1_M11,T2_M11,T3_M11,T4_M11,T5_M11,U1_M11,ZSPAN_M11,X2_M11,X0_M11,X1_M11
2023-01-18 08:00:00,,0813.3,5.00,0.00,22.9,23.0,00.0,31.5,24.9,14.3,0000.0,0002.50,0002.52,0002.47
2023-01-18 08:01:00,,0813.3,4.99,0.00,22.9,22.6,00.0,31.5,24.8,14.3,0000.0,0002.48,0002.48,0002.46
2023-01-18 08:02:00,,0813.3,5.01,0.00,22.9,22.2,00.0,31.5,24.8,14.3,0000.0,0002.47,0002.47,0002.45
2023-01-18 08:03:00,,0813.3,5.01,0.00,22.9,21.9,00.0,31.5,24.7,14.3,0000.0,0002.46,0002.48,0002.44
2023-01-18 08:04:00,,0813.3,4.99,0.00,22.9,21.7,00.0,31.6,24.7,14.3,0000.0,0002.46,0002.47,0002.43
2023-01-18 08:05:00,,0813.3,5.03,0.00,22.9,21.6,00.0,31.6,24.7,14.3,0000.0,0002.46,0002.47,0002.44
2023-01-18 08:06:00,,0813.3,5.00,0.00,22.9,21.5,00.0,31.6,24.6,14.3,0000.0,0002.46,0002.45,0002.43
2023-01-18 08:07:00,,0813.3,5.00,0.00,22.9,21.4,00.0,31.6,24.6,14.3,0000.0,0002.45,0002.46,0002.42
2023-01-18 08:08:00,,0813.3,4.99,0.00,22.8,21.3,00.0,31.6,24.6,14.3,0000.0,0002.45,0002.49,0002.41
2023-01-18 08:09:00,,0813.3,5.00,0.00,22.8,21.2,00.0,31.6,24.6,14.3,0000.0,0002.45,0002.50,0002.41
2023-01-18 08:10:00,,0813.3,5.00,0.00,22.8,21.2,00.0,31.6,24.5,14.4,0000.0,0002.45,0002.52,0002.40
2023-01-18 08:11:00,,0813.3,4.99,0.00,22.8,21.1,00.0,31.6,24.5,14.4,0000.0,0002.47,0002.59,0002.39
2023-01-18 08:12:00,,0813.2,4.99,0.00,22.8,21.1,00.0,31.6,24.5,14.4,0000.0,0002.47,0002.60,0002.39
2023-01-18 08:13:00,,0813.2,5.01,0.00,22.7,21.1,00.0,31.6,24.5,14.4,0000.0,0002.48,0002.61,0002.40
2023-01-18 08:14:00,,0813.2,5.00,0.00,22.7,21.0,00.0,31.5,24.4,14.4,0000.0,0002.49,0002.61,0002.41
2023-01-18 08:15:00,,0813.2,5.01,0.00,22.7,21.0,00.0,31.5,24.4,14.4,0000.0,0002.50,0002.64,0002.41
2023-01-18 08:16:00,,0813.2,4.99,0.00,22.7,21.0,00.0,31.5,24.4,14.4,0000.0,0002.52,0002.66,0002.42
2023-01-18 08:17:00,,0813.2,4.99,0.00,22.7,21.0,00.0,31.5,24.4,14.4,0000.0,0002.53,0002.68,0002.44
2023-01-18 08:18:00,,0813.2,4.99,0.00,22.7,21.0,00.0,31.5,24.4,14.5,0000.0,0002.54,0002.69,0002.46
2023-01-18 08:19:00,,0813.2,5.00,0.00,22.6,21.0,00.0,31.5,24.4,14.5,0000.0,0002.56,0002.79,0002.48
2023-01-18 08:20:00,,0813.3,5.00,0.00,22.6,20.9,00.0,31.5,24.4,14.5,0000.0,0002.58,0002.82,0002.50
2023-01-18 08:21:00,,0813.2,5.01,0.00,22.6,20.9,00.0,31.4,24.4,14.5,0000.0,0002.62,0002.87,0002.53
2023-01-18 08:22:00,,0813.3,5.01,0.00,22.6,21.2,00.0,31.4,24.4,14.5,0000.0,0002.64,0002.83,0002.57
2023-01-18 08:23:00,,0813.3,5.00,0.00,22.7,22.0,00.0,31.4,24.6,14.4,0000.0,0002.68,0002.89,0002.61
2023-01-18 08:24:00,,0813.3,5.00,0.00,22.8,22.9,00.0,31.4,24.8,14.4,0000.0,0002.70,0002.92,0002.63
2023-01-18 08:25:00,,0813.3,4.99,0.00,22.9,22.9,00.0,31.5,24.8,14.3,0000.0,0002.75,0002.97,0002.68
2023-01-18 08:26:00,,0813.3,4.99,0.00,22.9,22.5,00.0,31.5,24.8,14.3,0000.0,0002.79,0003.01,0002.73
2023-01-18 08:27:00,,0813.3,5.01,0.00,22.9,22.2,00.0,31.5,24.7,14.2,0000.0,0002.85,0003.07,0002.79
2023-01-18 08:28:00,,0813.3,5.00,0.00,22.9,21.9,00.0,31.5,24.7,14.2,0000.0,0002.90,0003.12,0002.84
2023-01-18 08:29:00,,0813.3,4.99,0.00,22.9,21.7,00.0,31.5,24.6,14.2,0000.0,0002.96,0003.20,0002.89
2023-01-18 08:30:00,,0813.3,5.02,0.00,22.8,21.5,00.0,31.5,24.6,14.2,0000.0,0003.02,0003.17,0002.96
2023-01-18 08:31:00,,0813.3,5.00,0.00,22.8,21.4,00.0,31.5,24.6,14.2,0000.0,0003.08,0003.21,0003.01
2023-01-18 08:32:00,,0813.3,4.98,0.00,22.8,21.3,00.0,31.6,24.5,14.2,0000.0,0003.11,0003.20,0003.06
2023-01-18 08:33:00,,0813.3,5.01,0.00,22.8,21.2,00.0,31.5,24.5,14.2,0000.0,0003.13,0003.24,0003.10
2023-01-18 08:34:00,,0813.3,5.03,0.00,22.8,21.1,00.0,31.5,24.5,14.3,0000.0,0003.15,0003.27,0003.13
2023-01-18 08:35:00,,0813.4,4.99,0.00,22.7,21.1,00.0,31.5,24.5,14.3,0000.0,0003.18,0003.32,0003.16
2023-01-18 08:36:00,,0813.3,5.00,0.00,22.7,21.1,00.0,31.5,24.4,14.3,0000.0,0003.20,0003.37,0003.18
2023-01-18 08:37:00,,0813.5,5.01,0.00,22.7,21.0,00.0,31.5,24.4,14.3,0000.0,0003.21,0003.41,0003.19
2023-01-18 08:38:00,,0813.5,5.00,0.00,22.7,21.0,00.0,31.5,24.4,14.3,0000.0,0003.23,0003.44,0003.21
2023-01-18 08:39:00,,0813.4,4.99,0.00,22.7,21.0,00.0,31.5,24.4,14.3,0000.0,0003.24,0003.45,0003.21
2023-01-18 08:40:00,,0813.5,5.00,0.00,22.7,21.0,00.0,31.5,24.4,14.3,0000.0,0003.25,0003.45,0003.22
2023-01-18 08:41:00,,0813.3,5.01,0.00,22.7,21.5,00.0,31.5,24.5,14.3,0000.0,0003.25,0003.45,0003.24
2023-01-18 08:42:00,,0813.5,5.01,0.00,22.8,22.4,00.0,31.5,24.7,14.2,0000.0,0003.27,0003.49,0003.25
2023-01-18 08:43:00,,0813.5,4.99,0.00,22.9,23.2,00.0,31.5,24.9,14.2,-001.1,0003.30,0003.60,0003.27
2023-01-18 08:44:00,,0813.5,5.00,0.00,22.9,22.9,00.0,31.5,24.9,14.1,-000.9,0003.32,0004.07,0003.29
2023-01-18 08:45:00,,0813.5,5.00,0.00,22.9,22.5,00.0,31.6,24.8,14.1,-001.8,0003.33,0004.12,0003.30
2023-01-18 08:46:00,,0813.5,5.00,0.00,22.9,22.2,00.0,31.6,24.8,14.1,-001.2,0003.35,0004.14,0003.32
2023-01-18 08:47:00,,0813.5,5.01,0.00,22.9,21.9,00.0,31.6,24.7,14.1,-001.0,0003.35,0004.15,0003.33
2023-01-18 08:48:00,,0813.5,5.00,0.00,22.9,21.7,00.0,31.6,24.7,14.1,-001.6,0003.36,0004.17,0003.34
2023-01-18 08:49:00,,0813.5,5.01,0.00,22.9,21.6,00.0,31.6,24.6,14.1,-002.9,0003.36,0004.17,0003.34
2023-01-18 08:50:00,,0813.5,5.00,0.00,22.9,21.4,00.0,31.6,24.6,14.1,-002.5,0003.37,0004.23,0003.34
2023-01-18 08:51:00,,0813.5,5.00,0.00,22.9,21.4,00.0,31.6,24.6,14.1,-002.3,0003.38,0004.31,0003.35
2023-01-18 08:52:00,,0813.5,4.98,0.00,22.8,21.3,00.0,31.6,24.6,14.1,-001.6,0003.37,0004.31,0003.35
2023-01-18 08:53:00,,0813.5,4.99,0.00,22.8,21.2,00.0,31.6,24.6,14.1,-000.3,0003.37,0004.32,0003.35
2023-01-18 08:54:00,,0813.5,4.99,0.00,22.8,21.2,00.0,31.6,24.6,14.1,-000.0,0003.36,0004.25,0003.34
2023-01-18 08:55:00,,0813.6,5.00,0.00,22.8,21.2,00.0,31.6,24.5,14.1,0000.0,0003.35,0003.90,0003.33
2023-01-18 08:56:00,,0813.6,4.99,0.00,22.8,21.2,00.0,31.6,24.5,14.2,0000.0,0003.36,0003.82,0003.34
2023-01-18 08:57:00,,0813.5,5.00,0.00,22.8,21.2,00.0,31.6,24.5,14.2,0000.0,0003.35,0003.81,0003.33
2023-01-18 08:58:00,,0813.5,5.00,0.00,22.8,21.1,00.0,31.6,24.5,14.2,0000.0,0003.35,0003.83,0003.33
2023-01-18 08:59:00,,0813.6,5.02,0.00,22.7,21.1,00.0,31.6,24.5,14.2,0000.0,0003.35,0003.83,0003.33
